Location: La Brionne
(46.1728°N, 1.7849°E)
Time: 10:59:13
(UTC+00:00)

USA 267 - Pass Details

Date: 26 October 2021
Orbit: 1101 x 1107 km, 123.0° (Epoch: 25 November)

Event Time Altitude Azimuth Distance (km) Brightness Sun altitude
Exits shadow 18:13:40 - 137° (SE) 3,367 5.4 -15.5°
Reaches altitude 10° 18:14:45 10° 138° (SE) 2,952 5.1 -15.7°
Maximum altitude 18:21:15 69° 221° (SW) 1,171 3.5 -16.8°
Drops below altitude 10° 18:27:46 10° 305° (NW) 2,963 6.3 -17.9°
Sets 18:30:17 0° 308° (NW) 3,924 7.0 -18.4°
